Temp
10 11 11 11 11 11 11 10 10 9 10 9 9 9 9 9 8 8 8 8 8 8 8 8 8 8 8 8 8 8 8 8 8 9 9 9 9 9 9 8 9 8 9
10 11 11 11 11 11 10 10 10 9 10 9 9 9 9 9 9 9 8 8 8 8 8 8 8 8 8 8 8 8 8 8 8 8 8 8 8 8 8 8 8 8 9
10 11 11 11 11 10 10 10 10 9 10 9 8 9 9 9 9 9 8 8 8 8 8 8 8 8 8 8 8 8 8 8 8 8 6 6 6 6 7 7 6 7 8
10 11 11 11 11 10 10 10 10 9 9 9 9 9 9 9 9 8 8 8 8 8 8 8 8 8 8 7 7 8 8 8 7 7 7 6 6 7 7 8 8 8 8
9 9 10 10 10 10 10 10 10 10 9 8 9 9 9 9 9 8 8 7 7 8 8 8 8 7 7 7 7 7 7 7 7 7 7 8 8 8 8 7 7 8 8
8 9 9 10 10 10 10 10 9 9 9 9 9 8 9 9 9 8 8 7 7 7 7 7 7 7 7 7 7 7 7 7 7 7 7 7 7 7 7 7 7 7 8
8 8 9 9 9 9 9 9 9 9 9 9 9 9 8 8 8 8 7 7 7 7 7 7 7 7 7 7 6 6 6 7 7 7 7 7 7 7 7 7 7 7 7
9 8 8 9 8 9 9 9 8 8 9 8 8 8 8 8 8 7 7 7 7 7 7 7 7 7 7 6 6 6 6 6 6 6 6 6 7 7 7 7 7 7 7
9 8 8 8 8 8 8 8 8 8 8 8 8 8 8 8 8 7 7 7 7 7 7 7 7 7 7 6 6 6 6 6 6 6 6 6 6 6 6 6 7 7 7
8 8 8 8 8 8 8 8 8 8 8 8 8 8 7 8 7 7 7 7 7 6 7 7 7 7 6 6 6 6 6 6 6 6 6 6 6 6 6 6 6 6 6
7 7 7 7 8 8 8 8 8 8 8 8 7 8 8 8 7 7 7 6 6 6 6 7 7 7 6 6 6 6 6 6 6 6 6 6 6 6 6 6 6 6 6
7 7 7 7 7 8 8 8 8 7 7 7 8 8 8 8 8 7 7 6 6 6 6 6 7 6 6 6 6 6 6 6 6 6 6 6 6 6 6 6 6 6 6
6 6 6 6 7 7 7 7 7 7 7 7 7 7 7 7 7 7 7 7 6 6 6 6 6 7 7 6 6 6 6 6 6 6 6 5 6 6 6 6 6 6 6
7 7 6 6 6 6 7 7 7 7 7 7 7 7 7 7 7 7 7 7 7 6 6 6 6 6 6 6 6 6 5 5 5 5 6 5 5 5 5 6 6 5 5
6 6 6 6 6 6 6 6 6 6 7 7 7 7 7 7 7 6 7 7 6 6 6 6 6 6 6 6 6 6 6 5 5 5 5 5 5 5 5 5 5 5 5
7 6 6 6 6 6 6 6 6 6 6 7 7 7 7 7 6 6 7 7 7 6 6 6 6 5 6 6 6 5 5 5 5 5 5 5 5 5 5 5 5 5 5
6 6 6 6 6 6 6 6 6 6 6 6 6 6 6 6 6 6 6 6 7 6 6 6 5 5 6 6 6 5 5 5 5 5 5 5 5 5 5 5 5 5 5
6 6 6 6 6 6 6 6 6 6 5 5 6 6 6 6 5 6 6 6 6 5 6 6 5 5 5 6 6 6 5 5 5 5 5 5 4 5 5 5 5 5 4
6 6 5 6 6 6 5 6 6 6 5 5 5 5 5 6 6 5 5 5 5 5 5 5 4 4 5 5 5 5 5 5 4 5 5 5 5 4 4 5 4 4 4
4 4 5 5 5 5 5 5 5 5 5 5 5 5 5 5 6 6 5 5 4 5 5 5 5 4 4 5 5 5 5 5 4 5 5 4 4 4 5 4 4 4 4
4 3 3 4 3 4 4 5 4 5 5 5 4 4 5 5 5 5 5 5 4 4 4 4 4 4 4 4 4 5 5 4 4 4 4 4 4 4 4 4 4 4 4
3 3 3 2 2 3 3 4 3 3 4 4 4 4 4 4 4 5 5 5 5 4 4 4 4 4 4 4 4 4 4 4 5 4 5 4 4 4 3 3 4 4 4
2 3 2 2 2 2 2 2 3 3 3 3 4 4 4 4 4 4 4 5 5 4 4 3 3 4 4 4 4 4 4 5 4 4 4 4 4 4 3 3 3 3 3
2 2 2 1 2 1 2 1 1 2 3 3 3 3 3 3 3 4 4 4 4 4 4 4 3 4 4 4 4 4 3 3 3 4 3 4 4 4 3 2 3 3 3
1 1 0 0 1 1 1 1 1 2 2 2 3 3 3 3 3 3 3 3 4 3 3 4 4 4 4 4 4 4 5 4 3 2 3 3 3 3 2 2 2 3 2
-0 0 -1 -1 0 0 0 0 1 2 2 2 2 2 2 2 3 3 3 2 3 3 3 3 3 4 4 3 3 3 4 4 4 3 2 2 2 2 2 1 1 1 1
Height
3147 3148 3149 3150 3151 3151 3153 3153 3153 3154 3155 3155 3154 3155 3155 3155 3156 3156 3157 3157 3158 3158 3158 3157 3157 3156 3156 3157 3157 3158 3158 3159 3160 3160 3160 3161 3161 3161 3161 3161 3161 3161 3161
3146 3147 3148 3149 3150 3151 3151 3153 3154 3154 3155 3155 3155 3155 3155 3155 3156 3156 3157 3158 3159 3159 3159 3158 3157 3157 3157 3157 3158 3159 3159 3160 3160 3161 3160 3161 3162 3162 3162 3162 3162 3162 3162
3144 3145 3147 3148 3149 3150 3151 3152 3153 3154 3155 3155 3155 3155 3155 3155 3155 3156 3157 3158 3159 3159 3158 3158 3158 3158 3158 3158 3158 3159 3160 3160 3161 3161 3162 3163 3163 3163 3163 3163 3164 3163 3162
3141 3144 3146 3147 3148 3149 3151 3152 3153 3154 3154 3155 3155 3155 3155 3155 3155 3156 3157 3158 3158 3159 3158 3158 3158 3159 3159 3159 3159 3159 3160 3161 3162 3162 3162 3163 3164 3164 3163 3163 3164 3163 3163
3139 3142 3144 3146 3147 3148 3150 3151 3153 3153 3154 3155 3155 3155 3155 3155 3156 3157 3157 3158 3159 3159 3159 3159 3158 3159 3159 3159 3160 3160 3161 3162 3162 3163 3163 3164 3164 3165 3165 3165 3164 3164 3164
3138 3139 3142 3144 3145 3146 3148 3150 3151 3152 3153 3153 3154 3154 3155 3155 3155 3156 3157 3158 3159 3159 3159 3160 3159 3159 3159 3160 3161 3161 3162 3162 3163 3163 3164 3164 3165 3166 3166 3166 3165 3165 3164
3137 3139 3139 3141 3143 3145 3147 3148 3149 3150 3151 3152 3153 3154 3154 3155 3155 3156 3157 3158 3159 3160 3160 3160 3160 3159 3159 3160 3161 3162 3162 3163 3163 3164 3165 3165 3166 3166 3166 3166 3166 3165 3165
3135 3137 3139 3139 3140 3142 3144 3146 3147 3148 3149 3150 3151 3152 3153 3154 3154 3155 3156 3158 3159 3159 3160 3160 3160 3160 3160 3160 3160 3161 3162 3163 3164 3164 3164 3165 3166 3166 3166 3166 3166 3166 3165
3132 3134 3136 3138 3139 3139 3141 3143 3144 3146 3147 3148 3148 3150 3151 3152 3153 3154 3156 3157 3158 3158 3159 3159 3159 3160 3161 3160 3160 3160 3161 3162 3163 3164 3164 3165 3165 3166 3166 3165 3165 3165 3165
3129 3131 3133 3135 3136 3138 3138 3140 3141 3143 3145 3145 3146 3147 3149 3149 3151 3152 3153 3155 3156 3157 3157 3158 3159 3159 3160 3161 3161 3161 3161 3161 3161 3162 3163 3164 3165 3165 3164 3164 3164 3164 3163
3126 3127 3129 3131 3133 3135 3136 3137 3138 3140 3141 3142 3143 3144 3146 3147 3149 3150 3152 3153 3154 3155 3156 3157 3157 3158 3158 3159 3160 3161 3161 3161 3161 3161 3162 3162 3162 3163 3163 3163 3163 3162 3162
3121 3123 3125 3127 3129 3131 3132 3133 3134 3137 3137 3138 3140 3141 3142 3144 3146 3147 3149 3150 3151 3153 3154 3155 3155 3156 3157 3157 3158 3159 3159 3160 3160 3160 3161 3161 3161 3161 3161 3161 3160 3160 3160
3116 3118 3120 3123 3125 3126 3128 3130 3131 3133 3134 3135 3136 3138 3139 3141 3143 3144 3146 3147 3148 3150 3151 3152 3153 3154 3155 3156 3157 3157 3157 3158 3158 3158 3159 3159 3159 3159 3159 3158 3158 3158 3158
3109 3112 3114 3117 3119 3121 3123 3124 3126 3128 3130 3131 3133 3134 3136 3138 3140 3141 3142 3144 3146 3147 3148 3150 3151 3152 3153 3154 3155 3155 3155 3155 3156 3156 3156 3157 3157 3157 3157 3157 3157 3156 3156
3101 3104 3107 3109 3112 3114 3116 3118 3121 3123 3125 3127 3128 3130 3132 3134 3136 3137 3138 3140 3141 3143 3144 3145 3148 3149 3150 3151 3152 3152 3153 3153 3154 3153 3153 3154 3154 3154 3155 3155 3155 3155 3154
3095 3097 3098 3099 3102 3106 3109 3112 3114 3116 3119 3122 3123 3126 3127 3129 3131 3133 3133 3136 3137 3138 3140 3141 3144 3145 3146 3147 3148 3149 3150 3151 3151 3151 3151 3151 3152 3152 3151 3152 3152 3152 3152
3086 3088 3089 3090 3093 3095 3099 3102 3106 3109 3112 3114 3116 3119 3122 3123 3126 3127 3130 3129 3131 3133 3135 3137 3138 3140 3142 3143 3144 3145 3146 3147 3148 3148 3149 3149 3149 3149 3149 3149 3149 3149 3149
3075 3077 3081 3081 3082 3084 3087 3092 3096 3100 3103 3106 3109 3112 3114 3117 3119 3121 3124 3126 3126 3128 3130 3132 3133 3135 3137 3138 3140 3141 3143 3143 3144 3145 3145 3145 3145 3146 3146 3146 3146 3145 3145
3065 3066 3068 3071 3072 3074 3077 3080 3085 3089 3093 3097 3101 3104 3108 3111 3114 3115 3118 3121 3121 3123 3125 3127 3128 3130 3132 3134 3136 3136 3138 3140 3140 3141 3142 3141 3141 3142 3142 3142 3142 3142 3142
3054 3055 3057 3059 3061 3063 3066 3069 3072 3077 3082 3087 3091 3096 3102 3105 3108 3109 3112 3112 3114 3116 3118 3121 3123 3124 3127 3129 3130 3132 3132 3133 3134 3136 3137 3137 3138 3138 3138 3137 3137 3137 3137
3044 3044 3045 3048 3049 3051 3054 3057 3060 3064 3070 3078 3083 3089 3094 3097 3099 3102 3104 3107 3108 3110 3113 3114 3117 3119 3121 3123 3123 3126 3126 3127 3126 3130 3131 3131 3130 3131 3131 3132 3131 3131 3130
3034 3034 3035 3037 3039 3041 3043 3045 3049 3053 3059 3067 3074 3080 3084 3087 3090 3094 3097 3099 3100 3106 3107 3108 3111 3114 3116 3117 3119 3119 3119 3120 3121 3122 3123 3122 3124 3124 3123 3124 3124 3124 3124
3022 3023 3024 3027 3030 3031 3033 3035 3038 3039 3044 3053 3061 3068 3073 3078 3083 3088 3090 3093 3095 3097 3102 3102 3105 3107 3110 3110 3113 3112 3112 3111 3114 3113 3113 3114 3115 3114 3115 3115 3116 3117 3118
3011 3011 3014 3017 3020 3022 3023 3026 3029 3031 3036 3043 3049 3057 3064 3071 3075 3079 3082 3086 3088 3091 3093 3098 3098 3101 3102 3104 3103 3104 3104 3106 3103 3103 3103 3104 3106 3105 3106 3105 3108 3109 3108
2998 3000 3003 3007 3010 3013 3014 3018 3021 3024 3028 3034 3040 3047 3055 3062 3066 3071 3074 3078 3081 3084 3087 3089 3091 3093 3094 3095 3095 3095 3096 3097 3098 3094 3093 3094 3093 3097 3096 3096 3098 3099 3099
2987 2989 2994 2999 3003 3005 3008 3010 3012 3015 3018 3024 3030 3037 3045 3052 3058 3062 3067 3070 3073 3076 3079 3081 3083 3084 3085 3086 3087 3087 3085 3085 3087 3088 3084 3085 3086 3086 3088 3087 3087 3089 3090
Wind_Speed
14 13 10 9 8 5 3 2 2 2 1 0 0 0 0 1 1 0 2 3 2 3 4 4 4 4 4 4 4 4 4 5 6 7 8 7 7 8 8 8 8 8 6
16 13 12 13 12 9 7 5 4 3 1 1 1 1 1 1 1 1 4 3 2 3 5 4 4 3 4 4 4 4 5 6 7 8 8 7 7 8 8 8 8 7 7
22 16 12 13 13 11 9 7 4 4 2 2 3 3 2 2 2 3 6 4 3 3 6 5 5 4 3 3 4 5 6 7 8 8 8 9 8 8 8 8 10 8 6
21 23 15 12 15 13 10 8 5 5 2 2 3 3 3 3 2 4 6 5 3 4 6 5 5 4 3 3 4 6 7 8 7 7 8 8 8 8 6 6 6 5 4
15 14 21 16 16 14 11 9 7 5 4 4 3 4 4 3 2 4 6 8 2 3 5 5 5 4 3 3 4 6 7 7 7 6 6 6 6 6 5 5 4 4 3
12 15 17 19 19 16 13 11 9 6 5 5 6 5 4 3 4 6 6 7 2 1 3 4 3 3 3 3 5 6 6 6 6 5 5 5 4 4 3 2 2 2 2
15 13 17 17 19 18 16 15 12 10 9 7 7 6 5 4 5 8 7 7 4 2 2 2 2 2 3 4 5 5 5 5 5 5 3 2 2 2 1 0 1 2 2
21 17 17 18 20 21 21 18 16 13 11 11 10 8 7 7 7 9 9 8 7 4 3 2 2 1 3 5 5 6 5 5 5 4 4 3 3 3 2 3 3 4 4
26 23 21 21 21 23 24 22 19 18 16 13 13 11 10 9 10 10 10 10 9 7 5 4 3 3 3 4 6 6 6 5 5 5 5 5 5 5 5 5 5 5 6
23 25 24 26 24 23 25 24 22 21 20 17 16 14 14 14 13 13 12 13 13 10 8 7 6 5 5 5 5 6 6 6 6 6 7 7 8 8 8 8 8 7 7
24 25 25 27 29 29 27 27 26 25 23 21 19 17 16 16 15 15 15 15 14 13 11 10 9 8 7 6 6 6 6 7 7 8 9 9 9 10 10 11 11 10 9
28 30 30 30 30 30 32 32 30 28 27 25 23 20 18 18 17 18 17 17 19 17 15 13 13 12 10 9 8 8 8 8 8 9 9 10 11 12 12 12 12 11 11
31 32 34 34 34 32 31 33 33 33 32 31 28 26 24 21 18 18 18 20 20 19 17 16 16 15 12 12 11 10 10 10 10 10 10 11 12 12 12 12 12 12 11
32 34 37 38 39 37 36 35 34 34 35 35 33 31 29 26 24 22 21 22 22 22 22 20 19 18 16 15 14 13 13 12 12 12 12 12 12 13 13 12 12 11 10
32 33 38 42 43 42 42 39 37 37 37 36 35 34 33 31 28 26 25 23 22 22 23 23 22 21 20 18 18 17 16 15 15 14 14 13 13 14 13 13 12 11 11
34 35 37 43 45 47 47 45 43 41 39 38 38 36 35 33 32 31 29 27 25 26 24 25 23 25 23 23 22 21 19 19 18 17 16 15 15 15 14 13 13 12 12
37 37 39 41 46 49 49 49 48 46 45 42 41 41 38 38 36 34 31 31 29 28 27 27 27 27 27 26 25 25 23 22 22 20 19 19 18 18 17 16 15 15 14
41 40 40 42 45 48 52 51 53 49 49 48 42 41 39 39 36 37 35 34 32 27 27 28 30 30 30 30 28 29 27 26 24 23 22 22 23 21 20 20 20 19 18
41 42 40 41 46 49 51 54 54 55 53 50 48 44 41 39 38 38 37 36 33 32 29 30 30 32 29 31 29 31 30 31 27 27 26 26 26 25 24 23 22 22 21
40 40 40 40 42 48 50 54 57 57 56 53 50 47 43 40 42 39 40 39 37 37 31 30 31 31 33 33 31 31 28 34 32 33 30 31 31 29 29 25 26 25 24
43 40 40 39 39 43 50 52 57 60 59 55 53 48 45 41 41 40 36 35 34 37 33 30 30 31 27 27 32 28 29 28 29 29 37 37 31 36 35 33 31 27 26
44 42 39 37 36 38 42 48 50 58 60 58 54 50 46 44 43 41 39 35 32 37 33 30 30 29 26 27 27 21 26 27 27 27 29 34 33 41 46 40 36 33 32
45 46 43 39 36 37 38 41 46 51 58 62 58 54 52 47 43 40 39 37 36 38 35 17 19 22 24 28 29 30 32 35 30 33 35 35 35 40 45 44 41 40 34
40 45 44 42 38 37 40 41 43 46 49 56 62 58 52 49 45 43 41 39 36 36 36 33 31 29 29 34 36 34 35 33 38 40 41 41 36 38 40 48 49 47 40
39 39 38 37 37 36 36 36 39 44 45 47 58 60 54 49 48 45 42 39 40 35 35 33 33 35 35 35 34 36 36 38 41 45 47 46 47 40 40 47 52 49 48
30 34 33 32 32 32 32 32 35 40 45 46 49 54 53 50 49 47 44 43 43 39 37 35 34 36 36 36 39 42 44 48 49 49 51 48 47 44 43 48 48 50 42
Wind_Direction
213 204 206 199 199 197 193 190 150 149 340 8 75 122 267 258 221 152 80 114 61 39 17 18 44 74 88 107 119 124 114 121 123 121 115 114 115 115 116 109 95 96 95
221 197 194 197 196 194 188 184 167 159 189 226 329 311 296 270 229 139 121 126 87 35 20 25 38 63 92 113 119 124 128 128 129 126 116 105 112 114 116 114 107 97 94
224 219 218 208 200 198 200 196 206 185 191 189 192 307 298 266 201 148 133 135 101 51 39 35 43 54 81 99 120 125 130 135 136 130 106 99 106 104 115 109 97 99 92
227 228 223 215 203 203 208 212 228 214 246 233 235 290 298 275 214 158 145 149 126 57 38 60 60 57 64 92 119 128 135 136 135 134 136 141 138 129 119 112 110 100 91
217 222 222 219 206 202 209 211 222 233 253 247 258 259 278 271 208 169 165 157 123 46 30 45 55 62 73 100 127 137 140 141 142 142 144 143 140 138 129 121 111 95 73
208 201 208 213 210 201 208 206 213 222 241 243 246 240 242 227 186 179 184 184 187 360 16 26 61 75 97 123 141 148 149 148 154 154 151 149 145 137 137 128 96 66 34
216 223 207 207 206 205 211 212 210 224 239 247 248 245 232 219 194 191 194 198 200 275 324 357 11 108 134 148 152 157 161 164 167 165 172 174 164 170 171 225 317 321 330
230 230 229 212 206 211 217 217 215 220 227 235 232 226 223 219 205 202 205 204 212 237 268 301 314 283 176 166 168 170 174 185 197 197 205 216 233 249 267 281 290 301 310
233 236 235 227 216 213 218 221 224 224 227 231 232 223 220 221 215 209 213 212 220 237 248 256 260 259 235 197 184 182 188 199 214 225 236 241 251 260 268 275 286 293 298
233 237 237 239 230 230 226 227 226 224 224 223 228 225 219 220 217 220 221 218 220 234 243 251 253 247 242 227 215 205 203 209 220 229 246 258 265 267 268 272 277 281 284
233 232 234 233 240 236 235 233 230 225 221 220 223 223 225 226 224 227 226 228 230 235 242 247 249 247 240 232 228 228 230 233 237 244 250 254 260 265 270 274 276 277 278
238 232 234 233 233 240 242 240 234 228 222 223 226 225 226 225 226 228 228 230 235 234 239 246 249 248 245 236 232 232 236 243 251 257 261 264 266 268 269 270 271 272 274
246 239 234 235 237 236 239 239 238 234 230 232 231 230 230 230 232 231 228 234 239 241 244 251 251 251 247 247 240 241 240 245 251 259 264 267 269 269 270 270 272 274 277
250 245 240 235 235 238 240 238 238 238 238 237 236 235 234 234 236 238 231 233 239 245 251 252 254 252 246 248 247 246 244 246 251 258 264 267 272 275 276 275 273 274 274
255 249 245 242 237 236 239 240 240 240 240 241 239 238 237 236 234 234 239 233 234 241 247 250 249 252 247 245 246 246 249 249 252 256 260 260 263 268 273 275 274 274 270
259 254 249 244 244 239 239 240 240 239 239 240 243 240 241 242 238 237 239 238 238 242 242 249 245 250 248 244 245 248 250 254 257 261 262 263 266 266 265 268 269 273 278
262 256 252 249 244 244 240 238 239 240 240 243 244 243 243 243 241 241 238 241 241 239 242 242 246 243 248 249 248 247 249 250 255 261 267 269 266 266 266 264 264 267 271
267 262 254 251 247 245 244 240 238 237 239 242 245 241 241 243 240 242 239 241 243 240 241 240 240 243 246 250 253 253 253 254 255 258 262 265 267 266 264 266 265 264 266
268 264 261 253 250 247 244 242 240 240 238 240 241 243 241 240 241 242 243 242 240 239 238 238 242 240 245 251 248 255 257 261 258 262 263 266 266 269 272 269 269 270 267
272 268 263 257 249 248 247 243 241 239 238 239 238 238 239 241 245 242 245 241 237 241 236 239 243 244 249 250 258 252 259 256 259 262 263 267 269 267 266 270 270 267 267
266 264 263 259 256 248 245 243 241 241 239 238 238 239 240 237 239 243 241 246 241 238 243 238 244 245 247 251 257 262 261 262 263 265 265 271 264 262 262 262 264 266 266
263 262 261 258 252 250 246 245 243 241 240 239 238 237 234 235 235 237 241 246 248 253 240 236 240 244 249 250 256 267 262 264 269 269 274 271 279 262 264 259 259 263 266
261 259 257 254 251 248 246 243 242 240 237 235 236 235 236 236 236 237 240 240 244 238 249 238 253 256 259 264 263 264 266 273 279 278 274 275 275 273 263 255 258 257 260
260 257 253 250 249 246 246 243 240 243 243 237 234 234 235 236 236 236 237 237 239 235 237 248 256 263 269 268 266 265 264 265 277 282 279 279 276 270 262 256 254 256 259
255 256 250 243 242 245 243 242 245 246 244 239 235 233 233 234 235 235 235 235 231 241 247 247 247 251 253 257 261 269 268 267 273 275 280 276 280 270 266 260 260 251 257
256 247 241 238 237 237 239 242 245 243 243 238 234 233 230 230 232 234 235 233 240 244 247 248 254 254 254 258 265 268 270 274 276 276 274 273 272 271 265 258 265 249 256